This is the latest recevied weather packets stored in our database for station/object N5YHM-13. If no packets are shown the sender has not sent any weather packets the latest 10 day(s).
| Time | Temp. | Humidity | Pressure | Rain* | Wind** | Luminosity | Snow |
|---|---|---|---|---|---|---|---|
| 1787824356 | 22.22° C | 99% | 1015.9 hPa | 1.78 mm | - | 0 W/m² | - |
| 1787824052 | 22.22° C | 99% | 1016 hPa | 1.27 mm | - | 0 W/m² | - |
| 1787823747 | 22.22° C | 99% | 1016.2 hPa | 1.27 mm | - | 0 W/m² | - |
| 1787823446 | 22.22° C | 99% | 1016.2 hPa | 0 mm | - | 0 W/m² | - |
| 1787823140 | 22.22° C | 99% | 1016.3 hPa | 1.78 mm | - | 0 W/m² | - |
| 1787822834 | 22.22° C | 99% | 1016 hPa | 4.83 mm | - | 0 W/m² | - |
| 1787822529 | 22.22° C | 99% | 1016 hPa | 6.1 mm | - | 0 W/m² | - |
| 1787822224 | 22.78° C | 99% | 1016 hPa | 7.87 mm | - | 0 W/m² | - |
| 1787821923 | 22.78° C | 99% | 1016 hPa | 11.94 mm | - | 0 W/m² | - |
| 1787821618 | 22.78° C | 99% | 1016.2 hPa | 13.72 mm | - | 0 W/m² | - |
| 1787821314 | 22.78° C | 99% | 1016.3 hPa | 6.6 mm | - | 0 W/m² | - |
| 1787821013 | 22.78° C | 99% | 1016.4 hPa | 1.27 mm | - | 0 W/m² | - |
| 1787820711 | 22.78° C | 99% | 1016.6 hPa | 1.27 mm | - | 0 W/m² | - |
| 1787820408 | 23.33° C | 99% | 1016.9 hPa | 1.78 mm | - | 0 W/m² | - |
| 1787820104 | 23.89° C | 98% | 1016.6 hPa | 0 mm | - | 0 W/m² | - |
| 1787819798 | 24.44° C | 96% | 1016.9 hPa | 0 mm | - | 0 W/m² | - |
| 1787819494 | 25° C | 92% | 1016.5 hPa | 0 mm | - | 0 W/m² | - |
| 1787819192 | 25.56° C | 89% | 1016.4 hPa | 0 mm | - | 0 W/m² | - |
| 1787818888 | 25.56° C | 89% | 1016.1 hPa | 0 mm | - | 0 W/m² | - |
| 1787818586 | 26.11° C | 90% | 1015.9 hPa | 0 mm | - | 0 W/m² | - |
| 1787818282 | 26.11° C | 92% | 1015.9 hPa | 0 mm | - | 0 W/m² | - |
| 1787817982 | 26.67° C | 96% | 1015.5 hPa | 0 mm | - | 0 W/m² | - |
| 1787817680 | 26.67° C | 98% | 1015.5 hPa | 0 mm | - | 0 W/m² | - |
| 1787817379 | 27.22° C | 98% | 1015.5 hPa | 0 mm | - | 0 W/m² | - |
| 1787817074 | 27.22° C | 98% | 1015.7 hPa | 0 mm | - | 0 W/m² | - |
* Rain latest hour (hover to see other rain measurements)
** Current wind speed in m/s (hover to see current wind gust speed)